STARLINK-32664, 62204

Orbit data source: Space-Track

STARLINK-32664, 62204 is a payload satellite owned by SpaceX/Seattle (US) in LEO that was launched on Wed, 04 Dec 2024 UTC via an FALCON 9 launch vehicle from the Air Force Eastern Test Range (AFETR). Payload-class satellites include a variety of spacecraft equipped with specific instruments for various scientific and technological missions. These include communications satellites like Starlink; space stations such as the ISS; scientific satellites like the Hubble; Earth observation satellites from companies like Planet Labs, Umbra, and HawkEye 360; GPS; miniature CubeSats for education and research; and military/defense satellites.

Loading next visibility...
Identifier
62204, 2024-229N
Orbit
LEO
Last TLE update
13 hours ago
Origin
Manufacturer
SpaceX/Seattle
Mission
Operational Commercial Communications
Bus & Motor
STARLINK V2M, Unknown motor
Mass
730 kg wet, ~700 kg dry
Launch date (UTC)
2024-12-04 (7 months ago)
Launch vehicle
FALCON 9
Launch site
Air Force Eastern Test Range (AFETR)
Object type
Payload
Rocket body
Debris
Shape & HBR
Box + 2 Pan, 29 m
Radar Cross Section
33.884 m², Large (>1 m²)

Expand to show TLE details & history

TLE from 13 hours ago
0 STARLINK-32664
1 62204U 24229N   25189.75880534  .00009334  00000-0  34826-3 0  9993
2 62204  42.9989 208.4490 0001506 275.9905  84.0775 15.27583566 33255
Epoch: 2025-07-08T18:12Z
TLE epoch observation values (Epoch: 2025-07-08T18:12:40.781Z)
Latitude
-0.00001°
Longitude
8.32988°
Altitude
482.707 km
Speed
7.626 km/s
True Right ascension
13h 53m 47s
True Declination
0° 00' 00"
Sunlit
Object was in daylight at epoch
Visualization orbit readout
Latitude
-18.20665°
Longitude
-154.30301°
Altitude
486.559 km
Speed
7.623 km/s
Apparent Right ascension
05h 03m 00s
Apparent Declination
-33° 39' 54"
Sunlit
Object is in daylight
Visualization observer readout
Local Sidereal Time
19:49:35
Azimuth
92.7° ESE
Elevation
-56.379°
Doppler factor
1
Orbital elements
Apogee altitude
486.017 km
Perigee altitude
483.95 km
Semi-major axis
6,863.121 km
Eccentricity
0.00015
Inclination
42.9989°
RAAN
208.449°
Arg. of periapsis
275.9905°
True anomaly
Unknown
Mean anomaly
84.0775°
Eccentric anomaly
Unknown
Mean motion
3.81734 °/min
Orbital period
94.31 mins
BSTAR
0.00034826
Loading maneuver chart data...
Loading SW <> Apogee altitude chart data...
Loading historical data...
Loading historical data...
Loading historical data...
Loading historical data...
Loading historical data...
Loading historical data...
Loading historical data...

STARLINK-32664 Visibility forecast

Observer location: undefined°, undefined°

Span
Click to sort rows by Start time (UTC) header in descending order
Start Az.
Max El. time (UTC)
Max El. Az.
Max El.
End time (UTC)
End Az.
7 mins2025-07-09 08:44:03.548Z289.817° WNW2025-07-09 08:47:03.548Z330.122° NNW41.733°2025-07-09 08:51:03.548Z98.046° ESE
5 mins2025-07-09 10:24:03.548Z265.945° W2025-07-09 10:26:03.548Z217.764° SW29.527°2025-07-09 10:29:03.548Z148.213° SSE
6 mins2025-07-10 04:59:03.548Z238.941° WSW2025-07-10 05:01:03.548Z202.076° SSW42.288°2025-07-10 05:05:03.548Z74.066° E
6 mins2025-07-10 06:38:03.548Z283.493° WNW2025-07-10 06:40:03.548Z328.394° NNW37.384°2025-07-10 06:44:03.548Z73.426° E
|